Imperial, NE

2:10 AM MDT on October 23, 2017 (GMT -0600)
Imperial Municipal

Weather History for KIML - September, 2014

Change the Weather History Date:

Tuesday, September 30, 2014

  Actual Average Record
Temperature  
Mean Temperature 63 °F 58 °F  
Max Temperature 76 °F 73 °F 92 °F (1938)
Min Temperature 49 °F 43 °F 20 °F (1985)
Degree Days  
Heating Degree Days 2 8  
Month to date heating degree days 91 107  
Cooling Degree Days 0 1  
Month to date cooling degree days 109 91  
Year to date cooling degree days 955 957  
Growing Degree Days 12 (Base 50)    
Moisture  
Dew Point 47 °F    
Average Humidity 60    
Maximum Humidity 93    
Minimum Humidity 27    
Precipitation  
Precipitation 0.00 in 0.05 in 1.30 in (1904)
Sea Level Pressure  
Sea Level Pressure 29.72 in    
Wind  
Wind Speed 9 mph (SSW)    
Max Wind Speed 22 mph    
Max Gust Speed 29 mph    
Visibility 10 miles    
Events Rain , Thunderstorm    
T = Trace of Precipitation, MM = Missing Value Source: NWS Daily Summary

Daily Weather History Graph

Daily Weather History Graph

Search for Another Location

Airport or City:

Trip Planner

Search our weather history database for the weather conditions in past years. The results will help you decide how hot, cold, wet, or windy it might be!

Date:

Astronomy

Sep. 30, 2014 Rise Set
Actual Time 6:41 AM MDT 6:30 PM MDT
Civil Twilight 6:14 AM MDT 6:57 PM MDT
Nautical Twilight 5:43 AM MDT 7:28 PM MDT
Astronomical Twilight 5:11 AM MDT 8:00 PM MDT
Moon 12:52 PM MDT (9/30) 11:01 PM MDT (9/30)
Length of Visible Light 12h 42m
Length of Day
11h 48m
Waxing Crescent, 38% of the Moon is Illuminated
Sep 30
Waxing Crescent
Oct 1
First Quarter
Oct 8
Full
Oct 15
Last Quarter
Oct 23
New

Hourly Weather History & Observations

Time (MDT) Temp. Dew Point Humidity Pressure Visibility Wind Dir Wind Speed Gust Speed Precip Events Conditions
12:53 AM 57.0 °F 54.0 °F 89% 29.70 in 10.0 mi South 16.1 mph - N/A   Scattered Clouds
1:07 AM 57.0 °F 54.0 °F 89% 29.77 in 10.0 mi South 13.8 mph - N/A   Mostly Cloudy
1:53 AM 55.0 °F 50.0 °F 83% 29.71 in 10.0 mi WSW 13.8 mph 21.9 mph N/A   Scattered Clouds
2:53 AM 53.1 °F 48.0 °F 83% 29.73 in 10.0 mi SW 11.5 mph - N/A   Partly Cloudy
3:53 AM 51.1 °F 46.9 °F 86% 29.73 in 10.0 mi South 8.1 mph - N/A   Clear
4:53 AM 51.1 °F 46.0 °F 83% 29.75 in 10.0 mi SW 8.1 mph - N/A   Clear
5:53 AM 50.0 °F 45.0 °F 83% 29.75 in 10.0 mi SSW 6.9 mph - N/A   Clear
6:53 AM 48.9 °F 46.0 °F 90% 29.75 in 10.0 mi SW 9.2 mph - N/A   Clear
7:53 AM 52.0 °F 46.9 °F 83% 29.75 in 10.0 mi SSW 9.2 mph - N/A   Clear
8:53 AM 57.9 °F 48.0 °F 70% 29.74 in 10.0 mi SW 13.8 mph - N/A   Clear
9:53 AM 64.0 °F 48.0 °F 56% 29.76 in 10.0 mi SSW 12.7 mph - N/A   Clear
10:53 AM 68.0 °F 48.0 °F 49% 29.74 in 10.0 mi SSW 16.1 mph - N/A   Clear
11:53 AM 70.0 °F 46.0 °F 42% 29.73 in 10.0 mi SSW 12.7 mph - N/A   Clear
12:53 PM 73.0 °F 42.1 °F 33% 29.72 in 10.0 mi SSW 15.0 mph 20.7 mph N/A   Clear
1:53 PM 73.9 °F 39.9 °F 29% 29.70 in 10.0 mi SSW 13.8 mph 21.9 mph N/A   Clear
2:53 PM 75.0 °F 39.9 °F 28% 29.68 in 10.0 mi SSW 10.4 mph - N/A   Partly Cloudy
3:53 PM 75.0 °F 39.0 °F 27% 29.67 in 10.0 mi South 9.2 mph 17.3 mph N/A   Clear
4:53 PM 73.9 °F 37.9 °F 27% 29.68 in 10.0 mi SSW 13.8 mph - N/A   Clear
5:53 PM 70.0 °F 42.1 °F 36% 29.70 in 10.0 mi South 8.1 mph - N/A   Partly Cloudy
6:53 PM 62.1 °F 46.0 °F 56% 29.72 in 10.0 mi South 4.6 mph - N/A   Clear
7:53 PM 73.0 °F 51.1 °F 46% 29.68 in 10.0 mi SE 26.5 mph 34.5 mph N/A   Clear
8:41 PM 71.1 °F 53.1 °F 53% 29.73 in 9.0 mi SE 31.1 mph 36.8 mph 0.00 in Rain , Thunderstorm Light Thunderstorms and Rain
8:53 PM 59.0 °F 48.0 °F 67% 29.72 in 10.0 mi Calm Calm - N/A   Clear
9:53 PM 61.0 °F 48.0 °F 62% 29.71 in 10.0 mi West 3.5 mph - N/A   Clear
10:53 PM 59.0 °F 55.9 °F 90% 29.67 in 10.0 mi SE 19.6 mph - 0.09 in   Partly Cloudy
11:53 PM 57.9 °F 54.0 °F 87% 29.70 in 10.0 mi SSE 12.7 mph - N/A   Clear